Home > Weather > Santa Cruz > Past weeks

Flag for USA Past Weather in Santa Cruz, California, USA — Yesterday and Last 2 Weeks

Now
59 °F

Sunny.


Feels Like: 60 °F
Forecast: 54 / 71 °F
Wind: 3 mph from Southwest

Location: Watsonville Municipal Airport

Current Time: Jul 27, 2016 at 7:58:22 PM

Latest Report: Jul 27, 2016 at 6:53 PM


Visibility: 10 mi

Pressure: 29.92 "Hg

Humidity: 81%

Dew Point: 53 °F

Location of Santa CruzLocation

Past Weather in Santa Cruz — Graph

°F

Santa Cruz Temperature Yesterday

Maximum temperature yesterday: 72 °F (at 2:53 PM)
Minimum temperature yesterday: 53 °F (at 4:03 AM)
Average temperature yesterday: 59 °F

High & Low Weather Summary for the Past Weeks

 TemperatureHumidityPressure
High79 °F (Jul 21, 3:53 PM)100% (Jul 13, 3:53 AM)30.12 "Hg (Jul 13, 3:53 AM)
Low50 °F (Jul 13, 3:00 AM)35% (Jul 21, 2:53 PM)29.85 "Hg (Jul 24, 3:53 AM)
Average60 °F80%29.99 "Hg
* Reported Jul 12 5:53 PM — Jul 27 5:53 PM, Santa Cruz, Weather by CustomWeather, © 2016

Note: Actual official high and low records may vary slightly from our data, if they occured in-between our weather recording intervals... More about our weather records

Advertising

Santa Cruz Weather History for the Previous 24 Hours

Scroll right to see more
 ConditionsComfort  
Time TempWeatherWind HumidityBarometerVisibility
5:53 PM
Wed, Jul 27
62 °FSunny.7 mph75%29.92 "Hg10 mi
4:53 PM65 °FSunny.8 mph68%29.92 "Hg10 mi
3:53 PM67 °FSunny.9 mph63%29.93 "Hg10 mi
2:53 PM68 °FSunny.9 mph61%29.93 "Hg10 mi
1:53 PM72 °FSunny.10 mph55%29.93 "Hg10 mi
12:53 PM71 °FSunny.7 mph55%29.94 "Hg10 mi
11:53 AM70 °FSunny.8 mph57%29.94 "Hg10 mi
10:53 AM71 °FSunny.6 mph55%29.93 "Hg10 mi
9:53 AM66 °FSunny.No wind65%29.93 "Hg10 mi
8:53 AM59 °FSunny.No wind81%29.93 "Hg10 mi
7:53 AM52 °FFog.No wind100%29.92 "Hg5 mi
6:53 AM52 °FFog.No wind97%29.91 "Hg0 mi
5:53 AM51 °FFog.No wind100%29.90 "Hg1 mi
4:53 AM52 °FFog.No wind100%29.89 "Hg1 mi
3:53 AM52 °FFog.No wind100%29.89 "Hg0 mi
3:03 AM53 °FFog.No wind96%29.90 "Hg0 mi
2:53 AM53 °FFog.No wind100%29.89 "Hg1 mi
1:58 AM53 °FFog.No wind100%29.90 "Hg1 mi
1:53 AM53 °FFog.No wind100%29.90 "Hg1 mi
12:53 AM54 °FFog.No wind97%29.90 "Hg3 mi
11:53 PM
Tue, Jul 26
54 °FFog.No wind97%29.90 "Hg3 mi
10:53 PM54 °FFog.No wind97%29.91 "Hg3 mi
9:53 PM53 °FFog.No wind96%29.90 "Hg2 mi
8:53 PM54 °FSunny.5 mph93%29.89 "Hg10 mi
7:53 PM56 °FSunny.6 mph87%29.88 "Hg10 mi
Weather by CustomWeather, © 2016

See weather overviewHow to use our weather pages